Time,TemperatureF,DewpointF,PressureIn,WindDirection,WindDirectionDegrees,WindSpeedMPH,WindSpeedGustMPH,Humidity,HourlyPrecipIn,Conditions,Clouds,dailyrainin,SoftwareType,DateUTC
2013-07-07 00:11:00,63.0,58.0,-100.00,SSE,151,1.0,3.0,85,-99.99,,,-99.99,,2013-07-07 07:11:00,
2013-07-07 00:22:00,63.0,59.0,-100.00,ESE,104,1.0,2.0,86,-99.99,,,-99.99,,2013-07-07 07:22:00,
2013-07-07 01:12:00,62.0,59.0,-100.00,ESE,115,2.0,2.0,90,-99.99,,,-99.99,,2013-07-07 08:12:00,
2013-07-07 01:21:00,62.0,59.0,-100.00,ESE,113,1.0,1.0,89,-99.99,,,-99.99,,2013-07-07 08:21:00,
2013-07-07 01:43:00,62.0,59.0,-100.00,NE,51,1.0,1.0,91,-99.99,,,-99.99,,2013-07-07 08:43:00,
2013-07-07 01:53:00,61.0,58.0,-100.00,ESE,118,1.0,1.0,89,-99.99,,,-99.99,,2013-07-07 08:53:00,
2013-07-07 02:12:00,60.0,57.0,-100.00,East,94,1.0,2.0,89,-99.99,,,-99.99,,2013-07-07 09:12:00,
2013-07-07 02:22:00,60.0,57.0,-100.00,ESE,107,0.0,1.0,91,-99.99,,,-99.99,,2013-07-07 09:22:00,
2013-07-07 03:12:00,60.0,58.0,-100.00,SE,127,2.0,2.0,94,-99.99,,,-99.99,,2013-07-07 10:12:00,
2013-07-07 03:22:00,60.0,58.0,-100.00,East,99,1.0,2.0,92,-99.99,,,-99.99,,2013-07-07 10:22:00,
2013-07-07 03:32:00,60.0,58.0,-100.00,ESE,103,1.0,2.0,92,-99.99,,,-99.99,,2013-07-07 10:32:00,
2013-07-07 03:43:00,59.0,57.0,-100.00,ESE,118,2.0,2.0,94,-99.99,,,-99.99,,2013-07-07 10:43:00,
2013-07-07 03:52:00,59.0,57.0,-100.00,SE,126,1.0,2.0,94,-99.99,,,-99.99,,2013-07-07 10:52:00,
2013-07-07 04:11:00,58.0,56.0,-100.00,SE,128,2.0,3.0,94,-99.99,,,-99.99,,2013-07-07 11:11:00,
2013-07-07 04:43:00,59.0,58.0,-100.00,NE,56,1.0,2.0,95,-99.99,,,-99.99,,2013-07-07 11:43:00,
2013-07-07 05:11:00,57.0,56.0,-100.00,ESE,120,2.0,3.0,95,-99.99,,,-99.99,,2013-07-07 12:11:00,
2013-07-07 05:22:00,57.0,56.0,-100.00,ESE,117,1.0,2.0,96,-99.99,,,-99.99,,2013-07-07 12:22:00,
2013-07-07 05:43:00,57.0,56.0,-100.00,ESE,103,2.0,3.0,95,-99.99,,,-99.99,,2013-07-07 12:43:00,
2013-07-07 06:11:00,57.0,56.0,-100.00,ESE,122,0.0,1.0,95,-99.99,,,-99.99,,2013-07-07 13:11:00,
2013-07-07 06:43:00,57.0,56.0,-100.00,ESE,119,2.0,3.0,96,-99.99,,,-99.99,,2013-07-07 13:43:00,
2013-07-07 06:52:00,58.0,56.0,-100.00,East,100,1.0,2.0,93,-99.99,,,-99.99,,2013-07-07 13:52:00,
2013-07-07 07:12:00,60.0,56.0,-100.00,NE,39,0.0,1.0,86,-99.99,,,-99.99,,2013-07-07 14:12:00,
2013-07-07 07:22:00,60.0,55.0,-100.00,SW,233,0.0,1.0,83,-99.99,,,-99.99,,2013-07-07 14:22:00,
2013-07-07 07:43:00,65.0,55.0,-100.00,North,11,0.0,1.0,70,-99.99,,,-99.99,,2013-07-07 14:43:00,
2013-07-07 07:53:00,66.0,53.0,-100.00,NW,307,1.0,2.0,64,-99.99,,,-99.99,,2013-07-07 14:53:00,
2013-07-07 08:11:00,69.0,53.0,-100.00,NW,323,0.0,2.0,57,-99.99,,,-99.99,,2013-07-07 15:11:00,
2013-07-07 08:22:00,71.0,52.0,-100.00,WNW,296,1.0,2.0,52,-99.99,,,-99.99,,2013-07-07 15:22:00,
2013-07-07 08:33:00,71.0,52.0,-100.00,WNW,296,1.0,2.0,52,-99.99,,,-99.99,,2013-07-07 15:33:00,
2013-07-07 08:52:00,75.0,53.0,-100.00,West,267,1.0,2.0,46,-99.99,,,-99.99,,2013-07-07 15:52:00,
2013-07-07 09:11:00,81.0,51.0,-100.00,West,278,1.0,2.0,35,-99.99,,,-99.99,,2013-07-07 16:11:00,
2013-07-07 09:22:00,81.0,51.0,-100.00,West,278,1.0,2.0,35,-99.99,,,-99.99,,2013-07-07 16:22:00,
2013-07-07 09:43:00,84.0,47.0,-100.00,SSW,200,3.0,7.0,28,-99.99,,,-99.99,,2013-07-07 16:43:00,
2013-07-07 10:11:00,85.0,47.0,-100.00,West,267,6.0,9.0,27,-99.99,,,-99.99,,2013-07-07 17:11:00,
2013-07-07 10:22:00,85.0,47.0,-100.00,West,270,6.0,10.0,27,-99.99,,,-99.99,,2013-07-07 17:22:00,
2013-07-07 10:43:00,87.0,46.0,-100.00,West,266,6.0,11.0,24,-99.99,,,-99.99,,2013-07-07 17:43:00,
2013-07-07 11:11:00,88.0,46.0,-100.00,West,263,8.0,16.0,23,-99.99,,,-99.99,,2013-07-07 18:11:00,
2013-07-07 15:33:00,93.0,43.0,-100.00,West,259,9.0,17.0,18,-99.99,,,-99.99,,2013-07-07 22:33:00,
2013-07-07 15:53:00,92.0,44.0,-100.00,West,265,10.0,18.0,19,-99.99,,,-99.99,,2013-07-07 22:53:00,
2013-07-07 16:11:00,92.0,45.0,-100.00,West,259,10.0,16.0,20,-99.99,,,-99.99,,2013-07-07 23:11:00,
2013-07-07 16:22:00,92.0,46.0,-100.00,West,264,10.0,17.0,21,-99.99,,,-99.99,,2013-07-07 23:22:00,
2013-07-07 16:33:00,92.0,45.0,-100.00,West,266,10.0,16.0,20,-99.99,,,-99.99,,2013-07-07 23:33:00,
2013-07-07 16:43:00,91.0,44.0,-100.00,West,263,10.0,18.0,20,-99.99,,,-99.99,,2013-07-07 23:43:00,
2013-07-07 16:52:00,91.0,46.0,-100.00,WSW,256,10.0,17.0,21,-99.99,,,-99.99,,2013-07-07 23:52:00,
2013-07-07 17:01:00,91.0,46.0,-100.00,West,259,10.0,18.0,21,-99.99,,,-99.99,,2013-07-08 00:01:00,
2013-07-07 17:11:00,91.0,46.0,-100.00,West,259,10.0,18.0,21,-99.99,,,-99.99,,2013-07-08 00:11:00,
2013-07-07 17:22:00,91.0,44.0,-100.00,West,267,9.0,14.0,20,-99.99,,,-99.99,,2013-07-08 00:22:00,
2013-07-07 18:11:00,89.0,47.0,-100.00,West,263,10.0,15.0,24,-99.99,,,-99.99,,2013-07-08 01:11:00,
2013-07-07 18:21:00,88.0,48.0,-100.00,West,264,10.0,15.0,25,-99.99,,,-99.99,,2013-07-08 01:21:00,
2013-07-07 18:32:00,88.0,49.0,-100.00,West,263,8.0,14.0,26,-99.99,,,-99.99,,2013-07-08 01:32:00,
2013-07-07 18:42:00,88.0,49.0,-100.00,West,267,8.0,13.0,26,-99.99,,,-99.99,,2013-07-08 01:42:00,
2013-07-07 19:11:00,87.0,49.0,-100.00,WNW,283,4.0,9.0,27,-99.99,,,-99.99,,2013-07-08 02:11:00,
2013-07-07 19:42:00,85.0,49.0,-100.00,West,274,4.0,8.0,29,-99.99,,,-99.99,,2013-07-08 02:42:00,
2013-07-07 19:52:00,85.0,49.0,-100.00,West,260,4.0,8.0,29,-99.99,,,-99.99,,2013-07-08 02:52:00,
2013-07-07 20:11:00,82.0,50.0,-100.00,West,271,2.0,5.0,33,-99.99,,,-99.99,,2013-07-08 03:11:00,
2013-07-07 20:22:00,80.0,51.0,-100.00,West,274,2.0,3.0,36,-99.99,,,-99.99,,2013-07-08 03:22:00,
2013-07-07 20:42:00,79.0,52.0,-100.00,WNW,292,2.0,4.0,39,-99.99,,,-99.99,,2013-07-08 03:42:00,
2013-07-07 20:52:00,77.0,53.0,-100.00,WNW,285,3.0,5.0,43,-99.99,,,-99.99,,2013-07-08 03:52:00,
2013-07-07 21:01:00,76.0,53.0,-100.00,West,279,2.0,5.0,45,-99.99,,,-99.99,,2013-07-08 04:01:00,
2013-07-07 21:11:00,76.0,54.0,-100.00,WNW,291,2.0,5.0,47,-99.99,,,-99.99,,2013-07-08 04:11:00,
2013-07-07 21:22:00,76.0,54.0,-100.00,West,271,3.0,5.0,47,-99.99,,,-99.99,,2013-07-08 04:22:00,
2013-07-07 21:42:00,75.0,53.0,-100.00,WNW,286,1.0,3.0,46,-99.99,,,-99.99,,2013-07-08 04:42:00,
2013-07-07 22:22:00,71.0,50.0,-100.00,SE,127,3.0,4.0,48,-99.99,,,-99.99,,2013-07-08 05:22:00,
2013-07-07 22:43:00,70.0,52.0,-100.00,SE,131,4.0,5.0,53,-99.99,,,-99.99,,2013-07-08 05:43:00,
2013-07-07 22:53:00,70.0,53.0,-100.00,SSE,148,3.0,4.0,54,-99.99,,,-99.99,,2013-07-08 05:53:00,
2013-07-07 23:11:00,69.0,52.0,-100.00,SE,140,2.0,3.0,54,-99.99,,,-99.99,,2013-07-08 06:11:00,
2013-07-07 23:22:00,69.0,53.0,-100.00,SE,130,1.0,3.0,57,-99.99,,,-99.99,,2013-07-08 06:22:00,
2013-07-07 23:42:00,67.0,53.0,-100.00,SE,126,2.0,3.0,60,-99.99,,,-99.99,,2013-07-08 06:42:00,
2013-07-07 23:52:00,66.0,53.0,-100.00,SE,144,1.0,3.0,62,-99.99,,,-99.99,,2013-07-08 06:52:00,